STARLINK-33915, 63708

Orbit data source: Space-Track

STARLINK-33915, 63708 is a payload satellite owned by SpaceX/Seattle (US) in LEO that was launched on Mon, 28 Apr 2025 UTC via an FALCON 9 launch vehicle from the Air Force Western Test Range (AFWTR). Payload-class satellites include a variety of spacecraft equipped with specific instruments for various scientific and technological missions. These include communications satellites like Starlink; space stations such as the ISS; scientific satellites like the Hubble; Earth observation satellites from companies like Planet Labs, Umbra, and HawkEye 360; GPS; miniature CubeSats for education and research; and military/defense satellites.

Loading next visibility...
Identifier
63708, 2025-087M
Orbit
LEO
Country
Flag of USUS
Related business
Manufacturer
SpaceX/Seattle
Mission
Operational Commercial Communications
Bus & Motor
STARLINK V2MO, Unknown motor
Mass
575 kg wet, ~530 kg dry
Launch date (UTC)
2025-04-28 (8 months ago)
Launch vehicle
FALCON 9
Launch site
Air Force Western Test Range (AFWTR)
Object type
Payload
Rocket body
Debris
Shape & HBR
Box + 2 Pan, 17.7 m
Radar Cross Section
36.964 m², Large (>1 m²)

Expand to show TLE details & history
Last TLE update: 16 hours ago

TLE from 16 hours ago
0 STARLINK-33915
1 63708U 25087M   25348.94108314  .00021886  00000-0  74929-3 0  9997
2 63708  53.1599 253.2478 0001437  74.8186 285.2973 15.30182740 36228
Epoch: 2025-12-14T22:35Z
TLE epoch observation values (Epoch: 2025-12-14T22:35:09.583Z)
Latitude
-0.00006°
Longitude
-169.38896°
Altitude
475.907 km
Speed
7.629 km/s
True Right ascension
16h 52m 59s
True Declination
0° 00' 00"
Sunlit
Object was in daylight at epoch
Visualization orbit readout
Latitude
Unknown
Longitude
Unknown
Altitude
Unknown
Speed
Unknown
Apparent Right ascension
Unknown
Apparent Declination
Unknown
Sunlit
N/A
Visualization observer readout
Local Sidereal Time
13:25:39
Azimuth
Unknown
Elevation
Unknown
Doppler factor
Unknown
Orbital elements
Apogee altitude
476.508 km
Perigee altitude
474.538 km
Semi-major axis
6,853.66 km
Eccentricity
0.00014
Inclination
53.1599°
RAAN
253.2478°
Arg. of periapsis
74.8186°
True anomaly
285.28142°
Mean anomaly
285.2973°
Eccentric anomaly
285.28936°
Mean motion
3.82525 °/min
Orbital period
94.11 mins
BSTAR
0.00074929
Loading maneuver chart data...
Computing Atmospheric mass density...
Loading historical data...
Loading historical data...
Loading historical data...
Loading historical data...
Loading historical data...
Loading historical data...
Loading historical data...

Documentation

Showing up to 5 results
|